Regional Weather Roundup
Issued by NWS

Home | Current Version | Previous Version | Text Only | Print | Product List | Glossary Off
Versions: 1 2 3 4 5 6 7 8 9 10 11 12 13 14 15 16 17 18 19 20 21 22 23 24 25 26 27 28 29 30 31 32 33 34 35 36 37 38 39 40 41 42 43 44 45 46 47 48 49 50

000
ASUS43 KFSD 231902
RWRSD

WEATHER ROUNDUP FOR SOUTH DAKOTA
NATIONAL WEATHER SERVICE SIOUX FALLS SD
200 PM CDT WED AUG 23 2017

NOTE: "FAIR" INDICATES FEW OR NO CLOUDS BELOW 12,000 FEET WITH NO
SIGNIFICANT WEATHER AND/OR OBSTRUCTIONS TO VISIBILITY.


SDZ001>005-009-010-012>017-232000-
NORTHWEST AND NORTH CENTRAL SOUTH DAKOTA

CITY           SKY/WX    TMP DP  RH WIND       PRES   REMARKS
BUFFALO          N/A     86  48  26 NE7       29.95F
FAITH            N/A     81  56  42 MISG      29.99F
MOBRIDGE       SUNNY     82  58  43 E15       29.97F
$$

SDZ012>016-024>037-041>051-057-063-072>074-232000-
SOUTHWEST AND SOUTH CENTRAL SOUTH DAKOTA

CITY           SKY/WX    TMP DP  RH WIND       PRES   REMARKS
RAPID CTY ARPT SUNNY     85  53  33 NW6       30.01F
PIERRE         SUNNY     81  57  43 SE7       29.96F
CUSTER         SUNNY     80  49  33 SE10      30.15F
ELLSWORTH AFB  SUNNY     85  52  32 NE3       30.01F
PHILIP         SUNNY     88  55  32 E7        29.96F
PINE RIDGE     SUNNY     88  60  38 W5        30.02
SPEARFISH      LGT RAIN  82  48  30 E7        30.06F
WINNER         FAIR      85  62  46 S15G22    29.98F
$$

SDZ004>011-016>023-039-040-232000-
NORTHEAST SOUTH DAKOTA

CITY           SKY/WX    TMP DP  RH WIND       PRES   REMARKS
ABERDEEN       SUNNY     81  53  37 SE14G21   30.02F
WATERTOWN      MOSUNNY   74  53  48 S10       30.06
BROOKINGS      SUNNY     74  55  51 SE13      30.08F
SISSETON         N/A     76  54  46 SE7       30.05F
$$

SDZ017-020-022-023-036>040-048>070-232000-
SOUTHEAST SOUTH DAKOTA

CITY           SKY/WX    TMP DP  RH WIND       PRES   REMARKS
SIOUX FALLS    MOSUNNY   79  58  48 S9        30.08F
HURON          MOSUNNY   81  59  47 S13G18    30.01F
CHAMBERLAIN    PTSUNNY   85  63  47 S9        29.99F
MITCHELL       MOSUNNY   81  58  45 S10       30.03F
YANKTON        SUNNY     78  59  51 S13       30.07F
$$

ABBREVIATIONS USED IN REMARKS
   TC - TEMPERATURE IN CELSIUS
  WCI - WIND CHILL INDEX
   HX - HEAT INDEX
  VSB - VISIBILITY





USA.gov is the U.S. government's official web portal to all federal, state and local government web resources and services.